DW9314 Locust Valley NY US current weather conditions

sailwx.info

Wind from 022 at 0 knots gusting 5

Air temperature -6.7° C
Dewpoint -14.6° C

Last reported at 2020-Jan-21 06:01 UTC.
Time now 2020-Jan-21 06:38 UTC

Location: N 40°53' W 073°36'.
View on Google Maps.

See reports from other nearby stations

  
Tides and Currents Weather Stations Pressure Air Temp Water Temp Dewpoint Dewpoint Depression Visibility Wind Speed Wind Dir Waves Ship Positions
date/time (UTC)wind fromknots sea level pressurealtimeterstation pressurevisibilityair tempwater tempwave heightnotes
2020-Jan-21 06:01 022 0 gusting 5 -6.7
2020-Jan-21 05:47 319 -6.7
2020-Jan-21 05:31 252 -6.1
2020-Jan-21 05:16 350 -6.1
2020-Jan-21 05:02 005 0 gusting 5 -6.1
2020-Jan-21 04:46 319 0 gusting 7 -5.6
2020-Jan-21 04:32 060 -5.6
2020-Jan-21 04:16 329 0 gusting 11 -5.6
2020-Jan-21 04:00 012 0 gusting 7 -5.6
2020-Jan-21 03:46 015 1 gusting 8 -5.6
2020-Jan-21 03:31 012 0 gusting 6 -5.0
2020-Jan-21 03:17 032 -5.0
2020-Jan-21 03:01 348 -5.0
2020-Jan-21 02:46 344 0 gusting 6 -4.4
2020-Jan-21 02:31 286 0 gusting 6 -4.4
2020-Jan-21 02:16 360 0 gusting 8 -4.4
2020-Jan-21 02:02 355 0 gusting 9 -3.9
2020-Jan-21 01:46 039 2 gusting 9 -3.9
2020-Jan-21 01:30 028 3 gusting 13 -3.9
2020-Jan-21 01:16 027 0 gusting 7 -3.9
2020-Jan-21 01:02 321 0 gusting 4 -3.9
2020-Jan-21 00:46 338 -3.3
2020-Jan-21 00:31 017 0 gusting 6 -3.3
2020-Jan-21 00:15 010 2 gusting 5 -3.3
2020-Jan-21 00:00 029 -3.3
2020-Jan-20 23:45 026 -2.8
2020-Jan-20 23:31 327 -2.8
2020-Jan-20 23:15 009 1 gusting 10 -2.8
2020-Jan-20 23:00 325 1 gusting 7 -2.2
2020-Jan-20 22:45 005 4 gusting 11 -2.2
2020-Jan-20 22:30 005 2 gusting 7 -2.2
2020-Jan-20 22:15 005 0 gusting 6 -2.2
2020-Jan-20 22:01 355 0 gusting 7 -2.2
2020-Jan-20 21:46 355 1 gusting 7 -1.7
2020-Jan-20 21:30 019 3 gusting 13 -1.7
2020-Jan-20 21:15 037 2 gusting 11 -1.1
2020-Jan-20 21:00 005 0 gusting 9 -1.1
2020-Jan-20 20:46 032 0 gusting 10 -1.1
2020-Jan-20 20:31 321 5 gusting 14 -1.1
2020-Jan-20 20:15 340 4 gusting 12 -1.1
2020-Jan-20 20:00 025 4 gusting 14 -1.1
2020-Jan-20 19:45 341 5 gusting 14 -1.1
2020-Jan-20 19:30 315 5 gusting 13 -1.1
2020-Jan-20 19:15 022 2 gusting 13 -1.1
2020-Jan-20 19:00 346 6 gusting 14 -1.1
2020-Jan-20 18:45 024 3 gusting 13 -1.7
2020-Jan-20 18:32 033 6 gusting 18 -1.7
2020-Jan-20 18:17 017 4 gusting 10 -1.7
2020-Jan-20 18:01 300 8 gusting 16 -2.2
2020-Jan-20 17:47 014 4 gusting 15 -2.2
2020-Jan-20 17:34 035 5 gusting 16 -2.2
2020-Jan-20 17:17 350 5 gusting 13 -2.8
2020-Jan-20 17:02 032 4 gusting 15 -2.8
2020-Jan-20 16:46 019 2 gusting 10 -2.8
2020-Jan-20 16:33 067 3 gusting 14 -3.3
2020-Jan-20 16:16 020 3 gusting 11 -3.3
2020-Jan-20 16:02 022 3 gusting 14 -3.9
2020-Jan-20 15:47 350 5 gusting 13 -4.4
2020-Jan-20 15:31 360 3 gusting 12 -5.0
2020-Jan-20 15:17 346 4 gusting 11 -5.6
2020-Jan-20 15:01 026 4 gusting 12 -5.6
2020-Jan-20 14:46 279 3 gusting 10 -6.1
2020-Jan-20 14:31 339 3 gusting 13 -6.7
2020-Jan-20 14:16 043 5 gusting 13 -6.7
2020-Jan-20 14:01 026 0 gusting 6 -6.7
2020-Jan-20 13:45 020 5 gusting 18 -7.2
2020-Jan-20 13:30 005 4 gusting 14 -7.2
2020-Jan-20 13:15 344 3 gusting 14 -7.2
2020-Jan-20 13:00 022 11 gusting 12 -7.2
2020-Jan-20 12:46
2020-Jan-20 12:30
2020-Jan-20 12:15
2020-Jan-20 12:00
2020-Jan-20 11:47
2020-Jan-20 11:32
2020-Jan-20 11:16
2020-Jan-20 11:01
2020-Jan-20 10:46
2020-Jan-20 10:32
2020-Jan-20 10:16 291 3 gusting 15 -6.7
2020-Jan-20 10:01 360 6 gusting 19 -6.7
2020-Jan-20 09:45 290 4 gusting 9 -6.1
2020-Jan-20 09:30 322 4 gusting 8 -6.1
2020-Jan-20 09:15 344 3 gusting 14 -6.1
2020-Jan-20 09:00 005 2 gusting 14 -5.6
2020-Jan-20 08:45 025 3 gusting 13 -5.6
2020-Jan-20 08:31 355 6 gusting 16 -5.6
2020-Jan-20 08:15 009 1 gusting 7 -5.6
2020-Jan-20 08:00 319 4 gusting 14 -5.0
2020-Jan-20 07:45 005 3 gusting 20 -5.0
2020-Jan-20 07:30 337 6 gusting 14 -5.0
2020-Jan-20 07:15 344 5 gusting 13 -4.4
2020-Jan-20 07:02 311 4 gusting 13 -4.4
2020-Jan-20 06:46 005 6 gusting 21 -3.9
2020-Jan-20 06:31 011 5 gusting 12 -3.9
2020-Jan-20 06:18 322 2 gusting 13 -3.9
2020-Jan-20 06:03 327 3 gusting 13 -3.3
2020-Jan-20 05:46 257 6 gusting 15 -3.3
2020-Jan-20 05:31 336 5 gusting 13 -3.3
2020-Jan-20 05:16 318 4 gusting 14 -2.8
2020-Jan-20 05:02 285 4 gusting 13 -2.8
2020-Jan-20 04:45 194 3 gusting 9 -2.2
2020-Jan-20 04:31 262 6 gusting 18 -2.2
2020-Jan-20 04:16 286 5 gusting 12 -1.7
2020-Jan-20 04:01 285 8 gusting 19 -1.1
2020-Jan-20 03:45 300 2 gusting 11 -0.6
2020-Jan-20 03:30 344 2 gusting 8 -0.6
2020-Jan-20 03:16 234 1 gusting 13 -0.6
2020-Jan-20 03:00 338 2 gusting 12 -0.6
2020-Jan-20 02:45 304 2 gusting 6 -0.6
2020-Jan-20 02:33 331 3 gusting 7 -0.0
2020-Jan-20 02:02 229 2 gusting 7 -0.0
2020-Jan-20 01:47 281 4 gusting 11 -0.0
2020-Jan-20 01:31 249 4 gusting 8 -0.0
2020-Jan-20 01:01 313 4 gusting 10 0.6
2020-Jan-20 00:46 005 2 gusting 12 0.6
2020-Jan-20 00:31 057 3 gusting 11 1.1
2020-Jan-20 00:00 250 4 gusting 12 1.1
2020-Jan-19 23:45 261 2 gusting 11 1.1
2020-Jan-19 23:30 282 1 gusting 9 1.7
2020-Jan-19 23:00 286 5 gusting 12 1.7
2020-Jan-19 22:47 038 2 gusting 8 2.2
2020-Jan-19 22:31 355 3 gusting 8 2.8
2020-Jan-19 22:01 298 4 gusting 13 2.8
2020-Jan-19 21:46 324 1 gusting 10 3.3
2020-Jan-19 21:31 012 3 gusting 14 3.3
2020-Jan-19 21:01 328 4 gusting 10 5.0
2020-Jan-19 20:46 301 4 gusting 13 5.0
2020-Jan-19 20:30 258 5 gusting 14 5.0
2020-Jan-19 20:01 245 3 gusting 8 6.1
2020-Jan-19 19:45 277 2 gusting 10 6.7
2020-Jan-19 19:30 308 1 gusting 8 6.1
2020-Jan-19 19:00 266 2 gusting 11 5.0
2020-Jan-19 18:47 322 3 gusting 13 4.4
2020-Jan-19 18:33 263 4 gusting 13 4.4
2020-Jan-19 18:02 311 2 gusting 7 5.0
2020-Jan-19 17:45 026 3 gusting 9 4.4
2020-Jan-19 17:31 317 2 gusting 11 3.9
2020-Jan-19 17:00 303 4 gusting 12 5.0
2020-Jan-19 16:47 325 4 gusting 10 5.6
2020-Jan-19 16:31 311 1 gusting 10 6.1
2020-Jan-19 16:01 026 3 gusting 12 5.6
2020-Jan-19 15:45 250 5 gusting 16 6.1
2020-Jan-19 15:30 020 4 gusting 10 6.1
2020-Jan-19 15:02 294 4 gusting 10 5.0
2020-Jan-19 14:46 293 1 gusting 14 5.0
2020-Jan-19 14:31 238 4 gusting 12 5.0
2020-Jan-19 14:01 298 4 gusting 13 3.9
2020-Jan-19 13:47 287 2 gusting 8 3.9
2020-Jan-19 13:32 277 3 gusting 9 3.3
2020-Jan-19 13:00
2020-Jan-19 12:45
2020-Jan-19 12:30
2020-Jan-19 12:00
2020-Jan-19 11:45
2020-Jan-19 11:30
2020-Jan-19 11:17
2020-Jan-19 11:01
2020-Jan-19 10:47
2020-Jan-19 10:31
2020-Jan-19 10:16
2020-Jan-19 10:01
2020-Jan-19 09:46 331 1.7
2020-Jan-19 09:31 246 1 gusting 6 1.7
2020-Jan-19 09:15 288 0 gusting 5 1.7
2020-Jan-19 09:00 293 1 gusting 6 1.7
2020-Jan-19 08:46 310 1 gusting 9 2.2
2020-Jan-19 08:30 252 2 gusting 7 2.2
2020-Jan-19 08:15 229 3 gusting 13 2.2
2020-Jan-19 08:00 152 2 gusting 8 2.2
2020-Jan-19 07:45 215 2 gusting 5 1.7
2020-Jan-19 07:32 215 0 gusting 7 1.7
2020-Jan-19 07:18 284 1.7
2020-Jan-19 07:01 200 0 gusting 6 1.7
2020-Jan-19 06:46 200 0 gusting 6 1.7
2020-Jan-19 06:32 306 1 gusting 6 1.7
2020-Jan-19 06:15 208 1 gusting 14 1.7
2020-Jan-19 06:01 173 2 gusting 11 1.7